User: anonymous   Login
Location: Chagrin Falls Park
(41.4139°N, 81.3865°W)
Time: 21:29:50
(UTC+00:00)
Language:

COSMOS 1275 DEB - Orbit

View from above orbital plane
View from above orbital plane
View from above satellite
View from above satellite

Ground track
Ground track

The orbit data is extracted from the following two-line orbital elements,

1 42174U 81053SN  22028.17132817  .00002216  00000-0  82305-3 0  9991
2 42174  82.7833 346.9554 0043431  94.7767 265.8382 14.31268643426376
Epoch (UTC): 28 January 2022 04:06:42
Eccentricity: 0.0043431
inclination: 82.7833°
perigee height: 756 km
apogee height: 818 km
right ascension of ascending node: 346.9554°
argument of perigee: 94.7767°
revolutions per day: 14.31268643
mean anomaly at epoch: 265.8382°
orbit number at epoch: 42637

The dashed part of the orbit path shows where the satellite is in the earth's shadow,  

DLR